TimeMDT,TemperatureF,Dew PointF,Humidity,Sea Level PressureIn,VisibilityMPH,Wind Direction,Wind SpeedMPH,Gust SpeedMPH,PrecipitationIn,Events,Conditions,WindDirDegrees,DateUTC
12:15 AM,80.6,28.4,15,29.85,10.0,WSW,4.6,-,N/A,,Clear,250,2013-05-16 06:15:00
12:35 AM,78.8,28.4,16,29.85,10.0,South,6.9,-,N/A,,Clear,190,2013-05-16 06:35:00
12:55 AM,80.6,26.6,14,29.85,10.0,South,11.5,-,N/A,,Clear,170,2013-05-16 06:55:00
1:15 AM,80.6,26.6,14,29.85,10.0,South,9.2,-,N/A,,Clear,180,2013-05-16 07:15:00
1:35 AM,80.6,26.6,14,29.85,10.0,South,12.7,-,N/A,,Clear,190,2013-05-16 07:35:00
1:55 AM,80.6,26.6,14,29.85,10.0,SSW,6.9,-,N/A,,Clear,210,2013-05-16 07:55:00
2:15 AM,78.8,26.6,15,29.86,10.0,SW,9.2,-,N/A,,Clear,220,2013-05-16 08:15:00
2:35 AM,78.8,24.8,14,29.86,10.0,South,10.4,-,N/A,,Clear,190,2013-05-16 08:35:00
2:55 AM,78.8,24.8,14,29.86,10.0,South,8.1,-,N/A,,Clear,180,2013-05-16 08:55:00
3:15 AM,75.2,24.8,15,29.86,10.0,SE,8.1,-,N/A,,Clear,130,2013-05-16 09:15:00
3:35 AM,75.2,24.8,15,29.86,10.0,SE,11.5,-,N/A,,Clear,140,2013-05-16 09:35:00
3:55 AM,73.4,24.8,16,29.86,10.0,SE,10.4,-,N/A,,Clear,140,2013-05-16 09:55:00
4:15 AM,71.6,23.0,16,29.87,10.0,SE,9.2,-,N/A,,Clear,140,2013-05-16 10:15:00
4:35 AM,71.6,23.0,16,29.87,10.0,SE,12.7,-,N/A,,Clear,140,2013-05-16 10:35:00
4:55 AM,71.6,23.0,16,29.87,10.0,SE,13.8,-,N/A,,Clear,140,2013-05-16 10:55:00
5:15 AM,71.6,21.2,15,29.87,10.0,SE,10.4,-,N/A,,Clear,130,2013-05-16 11:15:00
5:35 AM,71.6,21.2,15,29.87,10.0,SE,9.2,-,N/A,,Clear,130,2013-05-16 11:35:00
5:55 AM,69.8,21.2,16,29.87,10.0,ESE,9.2,-,N/A,,Clear,120,2013-05-16 11:55:00
6:15 AM,69.8,21.2,16,29.88,10.0,SE,8.1,-,N/A,,Clear,130,2013-05-16 12:15:00
6:35 AM,68.0,21.2,17,29.89,10.0,SE,6.9,-,N/A,,Clear,130,2013-05-16 12:35:00
6:55 AM,68.0,19.4,16,29.89,10.0,SE,8.1,-,N/A,,Clear,130,2013-05-16 12:55:00
7:15 AM,69.8,21.2,16,29.89,10.0,SE,9.2,-,N/A,,Clear,140,2013-05-16 13:15:00
7:35 AM,71.6,21.2,15,29.90,10.0,SSE,8.1,-,N/A,,Clear,150,2013-05-16 13:35:00
7:55 AM,73.4,23.0,15,29.91,10.0,ESE,11.5,-,N/A,,Clear,110,2013-05-16 13:55:00
8:15 AM,73.4,23.0,15,29.91,10.0,SE,8.1,-,N/A,,Clear,130,2013-05-16 14:15:00
8:35 AM,75.2,23.0,14,29.91,10.0,ESE,9.2,-,N/A,,Clear,110,2013-05-16 14:35:00
8:55 AM,77.0,24.8,14,29.91,10.0,East,8.1,-,N/A,,Clear,100,2013-05-16 14:55:00
9:15 AM,77.0,24.8,14,29.91,10.0,WSW,5.8,-,N/A,,Clear,240,2013-05-16 15:15:00
9:35 AM,77.0,26.6,16,29.91,10.0,SSW,4.6,-,N/A,,Clear,210,2013-05-16 15:35:00
9:55 AM,78.8,26.6,15,29.91,10.0,SW,5.8,-,N/A,,Clear,220,2013-05-16 15:55:00
10:15 AM,78.8,26.6,15,29.90,10.0,SW,4.6,-,N/A,,Clear,220,2013-05-16 16:15:00
10:35 AM,78.8,26.6,15,29.90,10.0,Calm,Calm,-,N/A,,Clear,0,2013-05-16 16:35:00
10:55 AM,80.6,28.4,15,29.89,10.0,Calm,Calm,-,N/A,,Clear,0,2013-05-16 16:55:00
11:15 AM,82.4,28.4,14,29.89,10.0,WNW,3.5,-,N/A,,Clear,290,2013-05-16 17:15:00
11:35 AM,84.2,28.4,13,29.88,10.0,SSE,4.6,-,N/A,,Clear,150,2013-05-16 17:35:00
11:55 AM,84.2,28.4,13,29.87,10.0,East,4.6,-,N/A,,Clear,100,2013-05-16 17:55:00
12:15 PM,87.8,28.4,12,29.86,10.0,SSW,19.6,24.2,N/A,,Clear,210,2013-05-16 18:15:00
12:35 PM,89.6,28.4,11,29.85,10.0,SW,19.6,25.3,N/A,,Clear,230,2013-05-16 18:35:00
1:15 PM,89.6,28.4,11,29.83,10.0,SW,27.6,32.2,N/A,,Clear,220,2013-05-16 19:15:00
1:35 PM,89.6,26.6,10,29.83,10.0,SW,21.9,27.6,N/A,,Clear,230,2013-05-16 19:35:00
1:55 PM,89.6,28.4,11,29.83,10.0,SW,16.1,29.9,N/A,,Clear,220,2013-05-16 19:55:00
2:15 PM,89.6,28.4,11,29.82,10.0,SW,21.9,25.3,N/A,,Clear,220,2013-05-16 20:15:00
2:35 PM,89.6,26.6,10,29.82,10.0,SSW,13.8,24.2,N/A,,Clear,210,2013-05-16 20:35:00
2:55 PM,89.6,28.4,11,29.80,10.0,SW,17.3,29.9,N/A,,Clear,220,2013-05-16 20:55:00
3:15 PM,89.6,26.6,10,29.79,10.0,SSW,21.9,28.8,N/A,,Clear,210,2013-05-16 21:15:00
4:15 PM,89.6,26.6,10,29.78,10.0,SW,19.6,26.5,N/A,,Clear,220,2013-05-16 22:15:00
4:35 PM,89.6,26.6,10,29.77,10.0,WSW,17.3,28.8,N/A,,Clear,240,2013-05-16 22:35:00
5:15 PM,89.6,26.6,10,29.76,10.0,SSW,24.2,31.1,N/A,,Clear,210,2013-05-16 23:15:00
5:35 PM,89.6,26.6,10,29.76,10.0,SW,21.9,-,N/A,,Clear,220,2013-05-16 23:35:00
5:55 PM,87.8,26.6,11,29.76,10.0,SW,18.4,-,N/A,,Clear,230,2013-05-16 23:55:00
6:15 PM,87.8,26.6,11,29.75,10.0,SW,23.0,31.1,N/A,,Clear,220,2013-05-17 00:15:00
6:35 PM,87.8,24.8,10,29.75,10.0,SW,17.3,24.2,N/A,,Clear,230,2013-05-17 00:35:00
6:55 PM,87.8,24.8,10,29.74,10.0,SW,17.3,-,N/A,,Clear,230,2013-05-17 00:55:00
7:15 PM,87.8,24.8,10,29.74,10.0,SSW,19.6,24.2,N/A,,Clear,210,2013-05-17 01:15:00
7:35 PM,87.8,24.8,10,29.74,10.0,SSW,20.7,25.3,N/A,,Clear,210,2013-05-17 01:35:00
7:55 PM,84.2,24.8,11,29.74,10.0,SW,16.1,21.9,N/A,,Clear,230,2013-05-17 01:55:00
8:15 PM,84.2,23.0,11,29.75,10.0,SSW,12.7,-,N/A,,Clear,210,2013-05-17 02:15:00
8:35 PM,84.2,23.0,11,29.75,10.0,SSW,12.7,-,N/A,,Clear,200,2013-05-17 02:35:00
8:55 PM,82.4,21.2,10,29.75,10.0,SSW,10.4,-,N/A,,Clear,210,2013-05-17 02:55:00
9:15 PM,82.4,21.2,10,29.76,10.0,SSW,10.4,-,N/A,,Clear,210,2013-05-17 03:15:00
9:35 PM,80.6,21.2,11,29.77,10.0,South,6.9,-,N/A,,Clear,190,2013-05-17 03:35:00
9:55 PM,78.8,21.2,12,29.77,10.0,South,8.1,-,N/A,,Clear,170,2013-05-17 03:55:00
10:15 PM,78.8,21.2,12,29.77,10.0,South,6.9,-,N/A,,Clear,180,2013-05-17 04:15:00
10:35 PM,80.6,23.0,12,29.78,10.0,South,9.2,-,N/A,,Clear,190,2013-05-17 04:35:00
10:55 PM,78.8,23.0,13,29.78,10.0,SSE,6.9,-,N/A,,Clear,160,2013-05-17 04:55:00
11:15 PM,75.2,21.2,13,29.78,10.0,SSE,6.9,-,N/A,,Clear,160,2013-05-17 05:15:00
11:35 PM,75.2,23.0,14,29.78,10.0,SSE,8.1,-,N/A,,Clear,160,2013-05-17 05:35:00
11:55 PM,75.2,21.2,13,29.77,10.0,SE,8.1,-,N/A,,Clear,140,2013-05-17 05:55:00